When you browse on this site, cookies collect data to enhance your experience and personalize the content and advertising you see.
Visit our Privacy Policy to learn more. By continuing to use the site, you agree to this use of cookies and data.
  • In Hungary
  • List of Countries
  • For 7 days
  • Water Temperature
  • Weather Map
  • News
  • Weather Widgets
  • user-avatar
    Login

    Hourly Weather Lukaszow

    Today, 22 September, Sunday

    Time Temperature Precipitation Wind Pressure Humidity
    00:00 +10°C° 0 mm 2 mps 749 mmHg 81%
    01:00 +10°C° 0 mm 2 mps 749 mmHg 78%
    02:00 +9°C° 0 mm 2 mps 749 mmHg 79%
    03:00 +9°C° 0 mm 2 mps 749 mmHg 80%
    04:00 +9°C° 0 mm 2 mps 748 mmHg 81%
    05:00 +10°C° 0 mm 2 mps 748 mmHg 77%
    06:00 +11°C° 0 mm 3 mps 748 mmHg 74%
    07:00 +11°C° 0 mm 3 mps 748 mmHg 70%
    08:00 +13°C° 0 mm 3 mps 748 mmHg 62%
    09:00 +17°C° 0 mm 3 mps 748 mmHg 54%
    10:00 +19°C° 0 mm 3 mps 748 mmHg 46%
    11:00 +20°C° 0 mm 3 mps 748 mmHg 44%
    12:00 +21°C° 0 mm 3 mps 747 mmHg 42%
    13:00 +22°C° 0 mm 3 mps 747 mmHg 40%
    14:00 +23°C° 0 mm 2 mps 746 mmHg 43%
    15:00 +21°C° 0 mm 2 mps 746 mmHg 45%
    16:00 +22°C° 0 mm 1 mps 746 mmHg 48%
    17:00 +20°C° 0 mm 1 mps 746 mmHg 52%
    18:00 +18°C° 0 mm 1 mps 746 mmHg 57%
    19:00 +15°C° 0 mm 1 mps 746 mmHg 61%
    20:00 +15°C° 0 mm 1 mps 746 mmHg 63%
    21:00 +14°C° 0 mm 1 mps 746 mmHg 66%
    22:00 +13°C° 0 mm 0 mps 746 mmHg 68%
    23:00 +12°C° 0 mm 0 mps 746 mmHg 70%

    Tomorrow, 23 September, Monday

    Time Temperature Precipitation Wind Pressure Humidity
    00:00 +12°C° 0 mm 0 mps 746 mmHg 71%
    01:00 +11°C° 0 mm 0 mps 746 mmHg 73%
    02:00 +12°C° 0 mm 1 mps 746 mmHg 74%
    03:00 +12°C° 0 mm 1 mps 745 mmHg 76%
    04:00 +10°C° 0 mm 2 mps 745 mmHg 77%
    05:00 +12°C° 0 mm 2 mps 745 mmHg 76%
    06:00 +11°C° 0 mm 3 mps 745 mmHg 76%
    07:00 +12°C° 0 mm 3 mps 746 mmHg 76%
    08:00 +13°C° 0 mm 4 mps 746 mmHg 71%
    09:00 +15°C° 0 mm 4 mps 746 mmHg 66%
    10:00 +16°C° 0 mm 5 mps 746 mmHg 61%
    11:00 +17°C° 0 mm 5 mps 746 mmHg 59%
    12:00 +19°C° 0 mm 5 mps 746 mmHg 56%
    13:00 +20°C° 0 mm 5 mps 746 mmHg 54%
    14:00 +20°C° 0 mm 5 mps 746 mmHg 57%
    15:00 +19°C° 0 mm 5 mps 746 mmHg 59%
    16:00 +19°C° 0 mm 5 mps 746 mmHg 62%
    17:00 +17°C° 0 mm 4 mps 746 mmHg 69%
    18:00 +14°C° 0 mm 4 mps 746 mmHg 76%
    19:00 +12°C° 0 mm 4 mps 746 mmHg 84%
    20:00 +12°C° 0 mm 4 mps 746 mmHg 86%
    21:00 +11°C° 0 mm 4 mps 746 mmHg 87%
    22:00 +10°C° 0 mm 4 mps 747 mmHg 89%
    23:00 +10°C° 0 mm 3 mps 746 mmHg 91%

    Day after tomorrow, 24 September, Tuesday

    Time Temperature Precipitation Wind Pressure Humidity
    00:00 +9°C° 0 mm 3 mps 746 mmHg 93%
    01:00 +9°C° 0 mm 3 mps 746 mmHg 94%
    02:00 +9°C° 0 mm 3 mps 746 mmHg 95%
    03:00 +8°C° 0 mm 3 mps 746 mmHg 95%
    04:00 +8°C° 0 mm 2 mps 746 mmHg 96%
    05:00 +9°C° 0 mm 2 mps 746 mmHg 93%
    06:00 +9°C° 0 mm 2 mps 745 mmHg 90%
    07:00 +10°C° 0 mm 2 mps 745 mmHg 88%
    08:00 +13°C° 0 mm 2 mps 745 mmHg 79%
    09:00 +16°C° 0 mm 2 mps 745 mmHg 70%
    10:00 +18°C° 0 mm 2 mps 746 mmHg 61%
    11:00 +19°C° 0 mm 3 mps 745 mmHg 56%
    12:00 +20°C° 0 mm 3 mps 745 mmHg 52%
    13:00 +21°C° 0 mm 3 mps 744 mmHg 47%
    14:00 +21°C° 0 mm 3 mps 744 mmHg 49%
    15:00 +21°C° 0 mm 3 mps 744 mmHg 50%
    16:00 +21°C° 0 mm 3 mps 743 mmHg 52%
    17:00 +19°C° 0 mm 3 mps 743 mmHg 58%
    18:00 +17°C° 0 mm 3 mps 743 mmHg 65%
    19:00 +14°C° 0 mm 3 mps 743 mmHg 71%
    20:00 +13°C° 0 mm 3 mps 743 mmHg 74%
    21:00 +13°C° 0 mm 3 mps 743 mmHg 76%
    22:00 +13°C° 0 mm 3 mps 743 mmHg 78%
    23:00 +12°C° 0 mm 3 mps 742 mmHg 79%

    25 September, Wednesday

    Time Temperature Precipitation Wind Pressure Humidity
    00:00 +12°C° 0 mm 3 mps 742 mmHg 79%
    01:00 +12°C° 0 mm 3 mps 741 mmHg 79%
    02:00 +13°C° 0 mm 2 mps 741 mmHg 80%
    03:00 +13°C° 0 mm 2 mps 741 mmHg 80%
    04:00 +12°C° 0 mm 2 mps 741 mmHg 81%
    05:00 +13°C° 0 mm 2 mps 740 mmHg 79%
    06:00 +13°C° 0 mm 2 mps 740 mmHg 77%
    07:00 +14°C° 0 mm 2 mps 740 mmHg 75%
    08:00 +15°C° 0 mm 2 mps 740 mmHg 74%
    09:00 +15°C° 0 mm 2 mps 740 mmHg 73%
    10:00 +16°C° 0 mm 2 mps 740 mmHg 72%
    11:00 +17°C° 0.2 mm 3 mps 739 mmHg 72%
    12:00 +17°C° 0.2 mm 3 mps 739 mmHg 72%
    13:00 +18°C° 0.2 mm 4 mps 739 mmHg 72%
    14:00 +17°C° 0.4 mm 4 mps 739 mmHg 74%
    15:00 +17°C° 0.4 mm 4 mps 739 mmHg 76%
    16:00 +17°C° 0.4 mm 4 mps 739 mmHg 78%
    17:00 +16°C° 0.1 mm 3 mps 739 mmHg 79%
    18:00 +16°C° 0.1 mm 3 mps 739 mmHg 81%
    19:00 +14°C° 0.1 mm 3 mps 739 mmHg 83%
    20:00 +14°C° 0 mm 3 mps 739 mmHg 84%
    21:00 +14°C° 0 mm 3 mps 739 mmHg 84%
    22:00 +13°C° 0 mm 3 mps 739 mmHg 85%
    23:00 +13°C° 0 mm 3 mps 739 mmHg 86%

    26 September, Thursday

    Time Temperature Precipitation Wind Pressure Humidity
    00:00 +13°C° 0 mm 3 mps 739 mmHg 88%
    01:00 +13°C° 0 mm 4 mps 739 mmHg 89%
    02:00 +12°C° 0.1 mm 4 mps 740 mmHg 90%
    03:00 +12°C° 0.1 mm 4 mps 740 mmHg 92%
    04:00 +12°C° 0.1 mm 4 mps 740 mmHg 93%
    05:00 +12°C° 0 mm 4 mps 740 mmHg 91%
    06:00 +13°C° 0 mm 4 mps 740 mmHg 89%
    07:00 +13°C° 0 mm 4 mps 741 mmHg 86%
    08:00 +14°C° 0 mm 5 mps 741 mmHg 83%
    09:00 +14°C° 0 mm 5 mps 741 mmHg 81%
    10:00 +15°C° 0 mm 5 mps 742 mmHg 78%
    11:00 +15°C° 0.2 mm 5 mps 742 mmHg 78%
    12:00 +15°C° 0.2 mm 5 mps 742 mmHg 79%
    13:00 +15°C° 0.2 mm 5 mps 742 mmHg 79%
    14:00 +15°C° 0.1 mm 5 mps 742 mmHg 79%
    15:00 +15°C° 0.1 mm 4 mps 742 mmHg 79%
    16:00 +16°C° 0.1 mm 3 mps 742 mmHg 79%
    17:00 +14°C° 0 mm 3 mps 742 mmHg 82%
    18:00 +13°C° 0 mm 3 mps 742 mmHg 85%
    19:00 +12°C° 0 mm 3 mps 743 mmHg 89%
    20:00 +12°C° 0 mm 3 mps 743 mmHg 90%
    21:00 +12°C° 0 mm 3 mps 743 mmHg 91%
    22:00 +11°C° 0 mm 3 mps 743 mmHg 92%
    23:00 +11°C° 0 mm 3 mps 743 mmHg 92%

    27 September, Friday

    Time Temperature Precipitation Wind Pressure Humidity
    00:00 +11°C° 0 mm 3 mps 743 mmHg 93%
    01:00 +11°C° 0 mm 3 mps 743 mmHg 93%
    02:00 +11°C° 0 mm 3 mps 743 mmHg 93%
    03:00 +12°C° 0 mm 2 mps 744 mmHg 94%
    04:00 +12°C° 0 mm 2 mps 744 mmHg 94%
    05:00 +12°C° 0.1 mm 2 mps 744 mmHg 93%
    06:00 +13°C° 0.1 mm 2 mps 744 mmHg 93%
    07:00 +13°C° 0.1 mm 2 mps 744 mmHg 93%
    08:00 +14°C° 0.1 mm 2 mps 744 mmHg 90%
    09:00 +15°C° 0.1 mm 2 mps 744 mmHg 88%
    10:00 +16°C° 0.1 mm 2 mps 745 mmHg 85%
    11:00 +16°C° 0.1 mm 2 mps 745 mmHg 83%
    12:00 +16°C° 0.1 mm 2 mps 744 mmHg 81%
    13:00 +17°C° 0.1 mm 2 mps 744 mmHg 79%
    14:00 +17°C° 0.1 mm 2 mps 744 mmHg 81%
    15:00 +16°C° 0.1 mm 1 mps 744 mmHg 83%
    16:00 +16°C° 0.1 mm 1 mps 744 mmHg 84%
    17:00 +16°C° 0.1 mm 1 mps 744 mmHg 87%
    18:00 +15°C° 0.1 mm 1 mps 744 mmHg 90%
    19:00 +15°C° 0.1 mm 1 mps 745 mmHg 93%
    20:00 +15°C° 0.1 mm 1 mps 745 mmHg 93%
    21:00 +15°C° 0.1 mm 2 mps 745 mmHg 93%
    22:00 +15°C° 0.1 mm 2 mps 745 mmHg 93%
    23:00 +15°C° 0 mm 2 mps 745 mmHg 93%
    Show more